Regional Weather Roundup
Issued by NWS Cleveland, OH

Home | Current Version | Previous Version | Text Only | Print | Product List | Glossary Off
Versions: 1 2 3 4 5 6 7 8 9 10 11 12 13 14 15 16 17 18 19 20 21 22 23 24 25 26 27 28 29 30 31 32 33 34 35 36 37 38 39 40 41 42 43 44 45 46 47 48 49 50

000
ASUS41 KCLE 060002
RWRCLE
OHIO REGIONAL WEATHER ROUNDUP
NATIONAL WEATHER SERVICE CLEVELAND, OH
800 PM EDT THU MAY 05 2016

NOTE: "FAIR" INDICATES FEW OR NO CLOUDS BELOW 12,000 FEET WITH NO
SIGNIFICANT WEATHER AND/OR OBSTRUCTIONS TO VISIBILITY.

OHZ001>008-015>018-024>027-034-035-043-044-060100-
   NORTHWEST OHIO

CITY           SKY/WX    TMP DP  RH WIND       PRES   REMARKS
DEFIANCE       CLEAR     64  37  36 N9        29.87R
FINDLAY        PTCLDY    59  37  44 N9        29.85R
TOLEDO EXPRESS PTCLDY    63  38  39 N10       29.85S
TOLEDO EXEC    MOCLDY    61  39  44 NE7       29.86R
LIMA           CLOUDY    58  44  60 N8        29.85S
$$

OHZ009>014-019>023-028>033-038-089-060100-
   NORTHEAST OHIO

CITY           SKY/WX    TMP DP  RH WIND       PRES   REMARKS
CLE-HOPKINS    PTCLDY    53  45  74 N9        29.86R
CLE-LAKEFRONT  MOCLDY    52  47  83 NW8       29.83R
CUY CO. ARPT   PTCLDY    52  46  82 N8        29.83R
LORAIN-ELYRIA  CLOUDY    52  44  74 N7        29.85R
ASHTABULA      CLEAR     56  43  61 NE12      29.81R
AKRON-CANTON   PTCLDY    56  39  53 N16G24    29.79R
WOOSTER        CLEAR     54  44  69 N13       29.82R
MANSFIELD      CLOUDY    54  44  69 N12       29.83R
YOUNGSTOWN     MOCLDY    56  43  61 N10       29.77R
$$

OHZ042-051>053-060>062-070>072-077>081-060100-
  SOUTHWEST OHIO

CITY           SKY/WX    TMP DP  RH WIND       PRES   REMARKS
CINC-COVINGTON PTCLDY    55  47  74 W8        29.86S
CINC-LUNKEN    PTCLDY    58  49  72 NW5       29.86S
HAMILTON       CLOUDY    59  50  72 NW5       29.87R
DAYTON         CLOUDY    57  42  57 N8        29.87R
WRIGHT-PAT AFB CLOUDY    59  40  50 NW6       29.85R
DAYTON GENERAL CLOUDY    59  37  44 N13       29.85R
WILMINGTON     CLEAR     58  38  47 N13G20    29.83R
$$

OHZ036-037-039>041-045>050-054>059-063>069-073>076-082>088-060100-
  CENTRAL AND SOUTHEAST OHIO

CITY           SKY/WX    TMP DP  RH WIND       PRES   REMARKS
COLUMBUS       PTCLDY    58  41  53 N18G29    29.81R
OSU AIRPORT    PTCLDY    58  42  55 N18       29.82R
BOLTON FIELD   NOT AVBL
RICKENBACK AFB CLEAR     58  43  56 N17G28    29.81R
NEWARK         MOCLDY    60  41  49 N9G17     29.79R
MARION         CLEAR     57  42  57 NE10      29.84R
LANCASTER      PTCLDY    58  43  57 N12       29.80R
ZANESVILLE     PTCLDY    60  41  49 N9        29.77R
NEW PHILLY     CLEAR     58  41  53 N10G23    29.78R
$$



USA.gov is the U.S. government's official web portal to all federal, state and local government web resources and services.